User: anonymous   Login
Location: Unspecified
(0.0000°N, 0.0000°E)
Time: 04:47:15
(UTC+00:00)
Language:

Syncom 2 - Orbit

View from above orbital plane
View from above orbital plane
View from above satellite
View from above satellite

Ground track
Ground track

The orbit data is extracted from the following two-line orbital elements,

1 00634U 63031A   18009.98324853 -.00000070  00000-0  00000+0 0  9993
2 00634  35.2658 343.0710 0005363 151.1450  38.5736  1.00292055199461
Epoch (UTC): 09 January 2018 23:35:52
Eccentricity: 0.0005363
inclination: 35.2658°
perigee height: 35758 km
apogee height: 35803 km
right ascension of ascending node: 343.0710°
argument of perigee: 151.1450°
revolutions per day: 1.00292055
mean anomaly at epoch: 38.5736°
orbit number at epoch: 19946

The dashed part of the orbit path shows where the satellite is in the earth's shadow,  

DLR